Regional Weather Roundup
Issued by NWS

Home | Current Version | Previous Version | Graphics & Text | Print | Product List | Glossary On
Versions: 1 2 3 4 5 6 7 8 9 10 11 12 13 14 15 16 17 18 19 20 21 22 23 24 25 26 27 28 29 30 31 32 33 34 35 36 37 38 39 40 41 42 43 44 45 46 47 48 49 50
000
ASUS43 KDTX 201910
RWRMI
MICHIGAN HOURLY REGIONAL WEATHER ROUNDUP
NATIONAL WEATHER SERVICE DETROIT/PONTIAC MI
200 PM EST THU NOV 20 2014

NOTE: "FAIR" INDICATES FEW OR NO CLOUDS BELOW 12,000 FEET WITH NO
SIGNIFICANT WEATHER AND/OR OBSTRUCTION TO VISIBILITY.

MIZ047>049-052>055-059>063-066>070-074>076-081>083-202000-
SOUTHEAST LOWER MICHIGAN

CITY           SKY/WX    TMP DP  RH WIND       PRES   REMARKS
ADRIAN         CLOUDY    25  13  60 W18G28    29.96S
ALMA           CLOUDY    25   9  51 W17G24    29.89S
ANN ARBOR      LGT SNOW  24  13  62 W21G37    29.92R
BAD AXE        CLOUDY    23   9  55 W16G26    29.84R
DETROIT CITY   LGT SNOW  28  14  55 W20G33    29.90S
DETROIT        FLURRIES  27  15  61 W20G32    29.93R
FLINT          LGT SNOW  25  16  68 NW22G29   29.89R
GROSSE ILE     CLOUDY    27  16  63 SW15G25   29.92S
HILLSDALE      LGT SNOW  22  17  80 W15G25    29.94R VSB 3/4
HOWELL         MOSUNNY   24  15  71 W20G26    29.89R

CITY           SKY/WX    TMP DP  RH WIND       PRES   REMARKS
JACKSON        PTSUNNY   25  13  60 W18G30    29.92R
LAMBERTVILLE   CLOUDY    28  14  54 W16G25    29.97S
LANSING        MOSUNNY   23  12  62 W23G32    29.91S
LAPEER         NOT AVBL
MASON          LGT SNOW  24  18  79 W13G25    29.91R
MONROE         PTSUNNY   27  16  63 W20G25    29.94R
MT. CLEMENS    LGT SNOW  25  23  93 W10       29.86S
PONTIAC        FLURRIES  24  16  71 W18G26    29.86R
PORT HOPE        N/A     25  11  55 W10G25    29.81R
PORT HURON     LGT SNOW  23  19  86 SW6       29.88S
TRI CITIES     PTSUNNY   25  10  53 W23G31    29.88R
YPSILANTI      LGT SNOW  29  17  61 W18G26    29.92S
$$
MIZ043>046-050>051-056>058-064>065-071>073-077>080-202000-
SOUTHWEST LOWER MICHIGAN

CITY           SKY/WX    TMP DP  RH WIND       PRES   REMARKS
BATTLE CREEK   LGT SNOW  23  14  68 W15G30    29.95R VSB 3/4
BENTON HARBOR  CLOUDY    25  10  53 W22G31    30.02S
BIG RAPIDS     LGT SNOW  19  12  74 W8G20     29.88R
COLDWATER      CLOUDY    26  14  62 W16       29.97R
HOLLAND        CLOUDY    25  11  55 W18G30    29.98R
GRAND RAPIDS   SNOW      21  17  84 W16       29.94R VSB 1/2
KALAMAZOO      LGT SNOW  24  13  62 W18G29    29.97R
MARSHALL       CLOUDY    23  14  68 W17G28    29.94R HAZE
MUSKEGON       LGT SNOW  23  12  62 W22G30    29.96R BLWGSNOW
$$
MIZ016>042-202000-
NORTHERN LOWER MICHIGAN

CITY           SKY/WX    TMP DP  RH WIND       PRES   REMARKS
ALPENA         MOSUNNY   22  11  62 W14G23    29.77R
BEAVER ISLAND  PTSUNNY   23   9  55 W15G24    29.82R
BELLAIRE       CLOUDY    24   6  46 W10G18    29.85R
CADILLAC       MOSUNNY   19  10  69 W15       29.82R
CHARLEVOIX     CLOUDY    22   8  54 W20G25    29.85R
FRANKFORT      MOCLDY    21   6  52 NW14G25   29.89R
GAYLORD        LGT SNOW  18   8  65 W13G22    29.76R
GRAYLING       LGT SNOW  18  14  85 W12G20    29.81R VSB 3/4
HARBOR SPRINGS CLOUDY    22   8  54 W15G21    29.79R
HOUGHTON LAKE  MOSUNNY   19   9  65 W15       29.81R
MANISTEE       CLOUDY    21   7  53 W17       29.91R
OSCODA         PTSUNNY   25  12  58 W23G33    29.80R
PELLSTON       CLOUDY    22  11  62 W22G33    29.79R HAZE
TRAVERSE CITY  FLURRIES  20  10  65 W16       29.86R
$$
MIZ007>008-015-202000-
EASTERN UPPER MICHIGAN

CITY           SKY/WX    TMP DP  RH WIND       PRES   REMARKS
KINROSS        CLOUDY    21  19  93 W7        29.72R VSB 1/4
MACKINAC ISLAN LGT SNOW  23  15  71 W20G31    29.75R
NEWBERRY       LGT SNOW  19  15  87 W20G28    29.76R VSB 1
S. S. MARIE    CLOUDY    23  17  78 CALM      29.71R
$$
MIZ004>006-011>014-085-202000-
CENTRAL UPPER MICHIGAN

CITY           SKY/WX    TMP DP  RH WIND       PRES   REMARKS
MANISTIQUE     MOSUNNY   20   6  53 W15G24    29.83R
ESCANABA       MOSUNNY   19   1  45 NW15      29.87R
MENOMINEE      PTSUNNY   19   1  45 W9G16     29.91S
SAWYER-GWINN   MOSUNNY   16   1  53 W14G21    29.83R
$$
MIZ001>003-009>011-084-202000-
WESTERN UPPER MICHIGAN

CITY           SKY/WX    TMP DP  RH WIND       PRES   REMARKS
IRON MOUNTAIN  CLOUDY    16   1  51 W12       29.86R
HOUGHTON       SNOW      10   3  73 NW17      29.87R VSB 1/2 WCI  -8
COPPER HARBOR    N/A     16  10  77 N10G26    29.89R
IRONWOOD       CLOUDY     9   7  92 W14       29.92R VSB 1/4 WCI  -8
$$

ABBREVIATIONS USED IN REMARKS
   TC - TEMPERATURE IN CELSIUS
  WCI - WIND CHILL INDEX
   HX - HEAT INDEX
  VSB - VISIBILITY




USA.gov is the U.S. government's official web portal to all federal, state and local government web resources and services.